Theta_e
304 305 306 306 307 307 307 307 307 306 306 306 306 306 306 306 306 306 306 306 307 307 307 307 306 305 304 304 303 303 302 301 300 300 298 297 296 294 293 293 292 292 292 292 293 293 293 293 293 293 293 293 293 293 293 293 292 292 291 291 290 290 290 290 290 290 290 290 289 288 288 288 288 288 288 288 288 288 289 289 289 289 289 290 290
303 304 304 304 304 305 306 306 306 305 305 305 306 306 305 305 305 305 305 305 305 305 306 307 306 306 304 303 303 303 302 301 301 300 299 298 297 295 294 293 292 292 292 292 292 292 292 292 293 293 293 293 293 292 292 292 292 291 291 290 290 290 290 290 289 289 290 289 288 288 287 287 287 287 287 287 287 288 288 288 288 289 289 289 290
303 304 304 304 304 304 304 304 304 304 304 304 305 305 305 305 304 305 305 305 304 304 304 305 306 306 305 303 303 302 302 302 301 300 300 299 298 296 295 294 292 292 292 292 292 292 292 292 292 292 292 292 292 292 292 292 291 291 290 290 290 289 290 289 289 289 288 289 288 287 286 286 286 286 286 286 287 287 287 287 288 288 289 289 290
304 304 305 305 305 304 304 304 304 304 304 304 305 305 305 305 305 305 304 304 304 304 303 302 303 304 304 304 303 302 302 302 302 301 300 299 298 297 296 295 293 292 292 292 292 292 292 292 292 292 292 292 292 292 292 292 291 291 290 290 289 289 289 289 288 288 288 288 288 287 286 286 286 286 286 286 286 286 286 286 287 288 289 289 289
304 304 305 305 305 305 305 304 304 305 305 305 306 305 305 305 306 306 304 303 303 303 303 302 301 302 303 304 305 304 303 302 302 301 301 299 298 297 296 295 294 293 292 292 292 291 292 292 292 292 292 292 292 292 292 291 291 290 290 289 289 289 289 288 288 288 287 287 287 287 286 286 286 286 286 286 286 286 286 286 287 288 288 289 289
303 304 304 304 305 305 304 304 304 305 305 305 305 305 305 305 305 305 304 303 303 303 303 303 302 301 301 303 304 304 303 302 302 302 301 300 299 298 297 296 295 294 292 292 291 291 291 291 291 291 291 291 292 291 291 291 291 290 289 289 288 288 288 288 288 288 287 287 287 286 287 287 287 286 286 286 285 286 286 287 288 288 288 288 288
302 303 303 304 304 304 304 304 304 304 305 305 304 304 304 304 304 303 303 303 302 302 302 302 302 301 301 301 302 303 303 302 301 301 301 300 299 298 297 297 296 295 293 292 291 291 291 291 291 291 291 291 291 291 291 290 290 289 289 288 288 288 288 288 288 288 287 287 286 286 287 287 287 286 285 285 285 286 286 287 287 287 287 287 287
301 301 301 302 302 303 304 304 302 302 302 302 303 302 302 302 302 302 302 301 301 301 301 301 301 301 300 300 300 300 301 301 300 300 299 299 299 298 298 297 296 295 294 292 291 291 291 291 291 291 291 290 290 290 290 290 289 289 288 288 288 288 288 288 288 288 287 287 286 286 287 287 287 286 285 285 285 286 286 286 286 287 287 286 286
299 299 300 300 300 300 302 302 301 300 299 300 300 300 300 301 301 301 301 301 300 300 300 299 299 299 298 298 299 299 299 300 300 300 299 299 299 299 298 297 296 296 294 293 291 291 291 290 290 290 290 290 290 289 289 289 288 288 288 288 288 288 288 288 288 287 287 287 286 286 287 287 287 286 286 285 285 286 286 286 286 286 286 286 286
296 298 299 300 299 299 299 299 299 298 297 297 298 298 298 299 299 299 300 300 300 299 299 298 298 297 297 297 297 298 298 299 299 299 299 298 299 298 298 297 297 296 295 293 292 291 290 290 290 290 290 289 289 289 289 289 288 287 287 288 288 288 288 288 288 287 287 287 286 287 287 287 287 286 286 286 285 285 285 285 285 286 286 286 286
294 295 297 298 299 299 299 299 298 298 296 296 296 296 297 297 298 298 298 298 298 298 298 298 298 297 296 296 296 297 297 298 298 298 297 297 297 297 297 297 296 295 294 294 293 291 290 290 290 290 289 289 289 289 289 288 288 287 287 287 287 287 287 287 287 287 287 286 287 287 287 287 287 286 286 285 285 285 284 284 285 285 285 285 284
292 293 294 295 296 297 298 299 298 298 297 296 295 294 295 295 296 296 297 297 297 297 297 297 297 297 296 295 295 296 297 297 297 296 296 296 296 296 296 296 296 295 294 294 293 292 290 290 290 289 289 289 289 289 288 288 288 287 287 287 287 287 287 287 287 287 287 287 287 287 287 287 286 286 285 285 285 284 284 284 284 284 283 282 281
291 291 292 293 294 295 296 296 297 298 298 297 295 294 293 294 294 295 295 295 296 296 296 296 296 296 296 295 295 295 296 296 296 295 295 295 295 295 295 295 295 295 294 294 293 292 290 290 289 289 289 289 289 288 288 288 287 287 287 286 286 286 286 286 286 286 287 287 287 287 287 286 285 285 284 284 284 284 283 283 282 282 281 280 280
290 290 291 291 292 293 294 295 295 296 297 297 297 295 294 293 293 293 294 294 294 295 295 295 295 295 295 295 295 295 295 295 295 295 294 294 294 294 294 295 295 294 293 292 292 291 291 290 289 289 289 289 288 288 288 288 287 287 286 286 286 286 286 286 286 287 287 287 287 286 286 285 284 284 283 283 283 283 282 280 280 280 280 280 280
289 289 290 290 291 292 292 293 294 295 296 297 297 297 296 294 292 292 293 293 293 294 294 294 294 294 294 294 294 294 294 295 294 294 294 293 294 294 293 294 294 293 292 291 291 290 290 289 289 289 288 288 288 288 288 288 287 287 286 286 286 286 286 286 286 286 286 286 285 285 284 284 283 283 282 283 283 282 281 280 280 280 279 279 280
288 288 289 289 290 290 290 291 292 293 294 295 296 297 297 296 294 292 291 292 292 292 293 293 293 293 294 293 293 294 294 294 293 293 293 292 293 293 292 292 292 292 291 290 290 289 289 289 288 288 288 288 288 288 288 287 287 286 286 286 286 285 285 285 285 285 285 284 284 284 284 283 283 282 282 282 281 280 280 280 280 280 279 279 281
288 287 288 288 288 289 289 289 290 291 292 293 295 296 297 297 296 293 291 291 291 291 292 292 292 293 293 293 293 293 293 293 293 292 292 292 292 292 292 292 291 291 291 290 289 289 288 288 288 288 288 288 287 287 287 286 286 285 285 285 285 285 285 285 285 284 283 283 283 283 283 283 283 282 282 281 280 280 280 280 280 279 279 280 281
287 287 287 287 287 288 288 288 289 289 290 291 292 294 295 296 297 295 292 291 290 290 291 291 292 292 292 292 292 292 292 292 292 292 292 291 291 291 291 291 291 290 290 289 288 288 288 287 287 287 287 287 287 287 286 286 285 285 285 285 284 284 285 285 284 283 283 283 283 283 283 283 282 281 281 280 280 280 279 280 280 279 279 279 280
286 286 286 286 286 286 287 288 288 288 289 289 290 291 293 295 296 295 294 292 291 290 290 290 290 291 291 291 291 291 291 291 291 291 291 291 290 290 290 290 290 290 289 288 288 287 287 286 286 286 286 287 287 286 286 285 285 285 284 284 284 284 284 284 283 282 282 283 283 283 283 282 281 281 281 280 280 279 279 279 279 279 279 279 279
285 285 285 285 285 286 286 286 287 287 287 288 289 290 291 292 294 295 295 293 291 290 290 290 290 290 290 290 290 290 290 290 290 290 290 290 289 289 289 289 289 289 289 288 287 287 286 286 285 286 286 286 286 286 285 285 285 285 284 283 284 284 284 283 282 282 282 283 283 283 282 282 281 281 280 280 280 279 279 279 279 279 279 279 278
285 285 285 285 285 285 285 285 286 286 286 287 287 288 290 291 292 293 294 294 292 291 291 290 289 289 289 289 289 289 289 289 289 289 289 288 288 288 288 288 289 289 288 287 287 286 286 286 286 286 286 286 286 285 284 284 284 284 284 283 283 283 282 282 282 282 283 283 283 282 282 281 281 281 280 280 279 279 279 279 279 278 278 278 278
285 285 285 285 285 285 285 285 285 285 286 286 286 287 288 289 290 291 293 293 293 292 291 291 290 289 289 288 288 288 288 288 288 288 288 287 286 286 287 287 288 288 287 287 286 286 286 286 286 286 286 286 285 284 283 283 284 284 283 282 282 281 281 281 282 282 283 282 282 282 281 281 281 280 280 279 279 279 279 278 278 278 278 278 278
284 285 285 285 285 285 285 285 285 285 285 285 285 286 287 288 289 290 291 292 293 292 291 291 290 289 289 288 288 288 288 288 287 287 287 286 286 285 286 286 286 287 286 286 286 286 286 286 286 287 287 286 285 284 283 283 282 282 282 282 281 280 281 282 282 282 282 282 281 281 281 281 280 280 280 279 279 278 278 278 278 278 278 278 277
284 284 284 284 284 284 284 284 284 284 285 285 285 285 285 286 287 288 289 290 291 292 291 290 290 290 290 289 288 288 287 287 287 287 286 286 285 285 285 285 285 286 285 285 285 286 286 286 287 287 287 286 285 285 283 281 280 280 281 280 279 280 281 282 282 282 281 281 281 281 280 280 280 279 279 279 278 278 277 277 277 277 277 277 277
281 282 283 284 284 284 284 284 284 284 284 284 284 285 285 285 286 287 287 289 290 291 291 291 290 290 290 290 289 288 287 287 287 287 286 285 285 285 285 284 284 285 285 284 284 285 286 286 286 286 285 284 284 283 281 280 280 279 279 279 279 281 282 282 281 281 281 280 280 280 280 279 279 278 278 278 277 277 277 277 277 277 277 277 277
279 280 281 282 283 284 284 284 284 284 284 284 284 284 285 285 285 286 286 287 288 290 290 291 290 290 290 290 291 290 288 287 287 286 286 285 284 284 285 284 284 284 285 284 284 284 284 284 284 284 283 282 281 280 279 279 279 279 279 279 281 281 281 280 280 280 280 280 279 279 279 279 278 278 277 277 277 276 276 277 277 277 277 276 277
279 279 281 281 282 282 283 283 283 283 283 283 284 284 284 284 284 285 285 286 287 288 290 290 291 290 290 290 291 290 289 288 287 286 286 285 284 284 284 284 284 284 284 284 283 283 283 283 283 283 281 280 280 279 279 279 279 279 280 280 280 280 279 279 279 279 279 279 279 279 278 278 277 277 276 276 276 276 276 276 276 276 276 276 276
277 279 280 281 281 281 281 282 282 283 283 282 283 283 284 284 284 285 285 285 286 287 288 289 290 291 291 290 290 290 289 289 288 288 287 286 285 283 283 284 283 283 283 284 283 282 282 282 281 280 279 279 279 279 279 279 279 279 280 280 280 279 279 279 279 278 278 278 278 278 278 277 277 276 276 276 276 276 276 276 276 276 276 275 276
276 278 279 279 280 280 279 279 280 281 281 281 281 282 283 283 283 284 285 285 285 286 287 288 289 290 290 290 289 289 289 290 290 289 288 287 286 284 283 284 283 283 283 283 283 282 281 280 280 279 278 278 279 279 279 279 279 280 280 280 279 279 279 278 278 278 278 278 278 278 277 277 276 276 276 276 276 276 275 275 275 276 275 275 275
275 276 278 278 279 279 277 276 276 277 279 279 280 281 282 283 283 283 284 284 285 285 286 287 288 289 290 290 290 289 289 289 288 287 287 287 286 284 283 283 283 283 282 282 283 283 282 280 279 279 279 279 279 279 280 280 280 280 280 280 279 279 278 278 278 278 278 278 278 277 276 276 276 276 275 276 276 275 275 275 275 275 275 275 275
272 274 276 276 277 276 275 274 274 275 276 278 278 279 280 281 282 282 283 283 284 284 285 286 287 288 289 289 289 288 287 287 286 285 285 286 285 283 282 282 283 283 282 281 282 283 282 281 280 280 280 280 280 280 281 281 280 280 280 279 279 278 278 277 277 278 278 278 277 276 276 276 275 275 275 275 275 275 275 275 275 274 274 274 275
269 271 273 274 274 274 273 274 274 274 275 276 277 277 277 278 280 281 282 282 283 283 284 285 286 287 287 287 287 287 287 286 285 285 285 285 284 283 282 282 283 283 282 281 282 282 282 281 280 280 280 280 280 281 281 280 280 279 279 279 278 277 277 277 277 277 277 276 276 276 276 275 275 275 275 275 275 275 275 274 274 274 274 274 275
267 269 270 271 271 271 271 272 273 273 273 274 275 275 275 275 277 279 280 281 281 282 283 284 285 285 286 286 286 286 286 285 284 284 284 284 284 283 282 282 283 282 281 280 281 282 282 280 280 280 280 280 281 280 280 280 279 279 278 278 277 276 276 276 277 276 276 276 276 275 275 275 275 275 274 274 274 274 274 274 273 273 274 274 274
266 267 267 267 267 267 268 268 269 270 271 272 273 274 274 274 275 276 278 279 280 280 281 282 283 284 284 284 283 284 285 284 283 282 282 283 283 282 282 282 282 281 281 281 280 281 281 280 280 280 280 280 280 280 280 279 279 278 278 277 276 276 276 276 276 275 275 275 275 275 275 275 274 274 274 274 274 274 274 273 273 273 273 273 273
264 265 265 265 265 265 266 266 267 268 269 271 272 273 274 274 275 276 276 277 278 279 280 281 282 283 283 283 282 282 282 282 282 281 281 281 282 282 282 282 282 281 280 280 280 281 281 281 280 280 280 280 280 280 279 279 279 278 277 277 276 276 276 276 275 275 275 275 274 274 274 274 274 274 274 274 274 273 273 273 273 273 273 272 272
263 264 264 264 265 265 265 266 266 267 268 269 271 272 273 274 275 276 277 277 278 278 279 280 281 282 282 282 282 282 281 281 280 280 280 280 281 281 281 282 282 281 280 279 279 280 281 281 281 281 280 280 280 279 279 278 278 277 276 276 276 276 275 275 275 274 274 274 274 274 274 274 273 273 273 273 273 273 272 273 273 272 271 271 270
263 263 264 264 265 265 266 266 267 267 268 269 270 271 271 273 274 275 276 277 278 278 279 280 280 281 282 282 281 281 281 280 280 280 280 280 280 281 281 281 281 281 280 279 279 279 280 281 281 280 280 280 279 278 278 277 277 276 276 276 276 275 275 274 274 274 274 274 274 274 273 273 273 273 272 272 272 272 272 272 272 272 271 270 269
263 263 264 265 265 266 267 267 268 268 269 270 270 271 271 272 273 274 275 276 277 278 279 280 280 280 281 282 281 281 280 280 280 279 279 279 280 280 281 281 281 280 280 279 278 279 280 280 280 280 280 279 278 277 277 276 276 276 276 276 275 275 274 274 274 274 274 274 273 273 273 273 273 272 272 272 272 272 272 272 271 271 270 270 269
262 263 264 264 265 265 266 266 267 268 269 269 270 271 271 272 273 274 275 276 277 278 279 279 279 280 281 281 281 280 280 280 280 279 279 279 280 280 281 281 280 280 280 279 278 278 279 280 280 280 279 278 277 277 276 276 276 276 275 275 275 274 274 274 274 274 274 274 273 273 273 273 272 272 272 271 271 271 271 271 270 270 270 269 269
262 263 263 263 264 265 265 266 267 268 269 270 270 271 271 272 274 275 276 276 277 278 278 279 279 280 280 280 280 280 280 280 280 279 279 279 280 280 280 280 280 280 279 279 278 278 279 279 280 279 278 277 277 276 276 276 275 275 275 274 274 274 274 274 274 274 273 273 273 273 272 272 272 271 271 271 271 270 270 269 269 269 269 269 268
263 263 263 263 264 264 265 265 266 268 269 270 271 272 272 273 274 275 276 277 277 278 278 278 279 280 280 280 280 280 280 280 280 279 279 279 279 280 280 280 280 279 279 279 279 279 279 279 279 278 277 276 276 276 275 275 275 275 274 274 274 274 274 273 273 273 273 273 273 272 272 272 271 271 271 271 270 270 269 270 270 269 268 268 268
263 263 264 264 264 264 264 265 266 267 268 269 271 272 273 274 275 275 276 277 277 277 278 278 278 279 279 279 279 279 280 280 280 279 279 279 279 280 280 280 279 279 279 279 279 279 279 278 278 277 277 276 276 276 275 275 275 274 274 274 274 273 273 273 273 273 273 273 272 272 272 271 271 271 270 270 269 269 270 270 270 269 268 268 268
264 264 265 265 265 265 265 265 265 266 267 269 270 271 273 275 275 276 276 277 277 277 277 277 278 278 278 278 278 279 279 279 279 279 279 279 279 280 280 279 279 279 279 279 279 279 278 278 277 277 276 276 275 275 274 274 274 274 274 274 273 273 273 273 273 273 273 272 272 272 271 271 271 270 270 269 269 269 270 270 269 268 268 268 268
265 265 266 266 266 266 266 266 266 266 267 268 269 271 272 274 275 276 276 277 277 277 277 277 277 277 277 278 278 278 279 279 279 278 279 279 279 279 279 279 279 279 279 278 278 277 277 277 276 275 275 274 274 274 273 273 273 273 273 273 273 273 273 273 273 273 272 272 272 271 271 271 270 269 269 269 269 269 269 269 268 268 268 268 268
266 266 266 266 266 266 266 266 266 267 267 268 269 271 272 273 275 276 276 276 276 276 276 276 276 277 277 277 278 278 278 278 278 278 278 279 279 279 279 279 279 278 278 277 277 276 276 275 275 275 274 274 273 273 273 273 273 273 273 273 273 273 273 273 273 272 272 272 272 271 271 270 270 269 269 269 269 268 268 268 268 268 268 268 267
267 267 267 267 268 268 267 267 267 267 268 269 270 271 272 273 274 275 276 276 276 276 276 276 276 276 276 277 277 278 278 278 278 278 278 278 279 278 278 278 278 277 277 276 276 275 275 274 274 274 274 273 273 273 273 273 273 273 273 273 273 273 273 273 273 272 272 271 271 271 270 270 269 269 269 269 268 268 268 267 268 268 268 267 267
267 267 268 269 269 269 269 268 268 268 269 270 271 272 273 274 275 275 275 275 275 275 275 275 275 276 276 277 277 278 278 278 278 278 278 278 278 278 278 277 277 276 276 275 275 274 274 273 273 273 273 273 273 273 273 273 272 273 273 273 273 273 273 273 272 272 271 271 271 270 270 269 269 269 268 268 268 268 267 267 268 268 268 267 267
267 268 268 269 270 270 270 270 270 270 271 271 272 273 274 274 274 274 274 274 274 275 275 275 275 275 276 276 277 277 277 278 278 278 278 277 277 277 277 277 276 276 275 275 274 273 273 273 273 272 272 272 272 272 272 272 272 272 273 273 273 273 273 273 272 272 271 271 270 270 269 269 269 268 268 268 268 267 267 268 268 268 267 267 268
268 268 269 270 270 270 270 270 271 271 272 272 273 273 274 274 274 274 274 274 274 274 274 275 275 275 276 276 277 277 277 277 277 277 277 276 276 276 276 276 276 275 275 274 273 273 273 272 272 272 272 272 272 272 272 272 272 272 272 273 273 273 272 272 272 271 271 271 270 269 269 269 268 268 268 267 267 267 267 268 268 268 267 267 268
268 269 269 270 270 270 270 271 271 271 272 272 273 273 273 273 273 273 273 273 274 274 274 274 275 275 275 276 276 276 276 277 277 276 276 275 275 275 275 275 275 274 274 273 273 273 272 272 272 272 272 272 272 272 272 272 272 272 272 272 272 272 272 272 272 271 271 270 270 269 269 268 268 267 267 267 267 267 267 268 268 267 267 267 268
268 268 269 269 270 270 270 271 271 271 272 272 272 272 272 272 272 272 273 273 273 273 274 274 274 275 275 275 276 276 276 276 276 275 275 275 275 275 275 275 274 273 273 273 272 272 272 272 271 271 271 271 271 271 272 272 272 272 272 272 272 272 272 272 271 271 270 270 269 269 268 268 267 267 267 267 267 267 267 268 268 267 267 267 268
Wind_Speed
30 32 34 35 36 36 36 38 39 42 44 45 47 48 49 49 49 50 50 49 49 48 47 46 46 46 44 44 44 44 45 45 46 47 49 51 51 51 51 51 50 49 48 47 46 44 43 41 40 38 36 34 33 32 30 28 26 25 23 22 21 21 21 21 20 18 17 19 20 18 19 19 15 12 15 16 16 17 18 20 22 24 26 27 28
24 27 31 34 37 38 37 36 37 40 42 44 45 47 49 51 51 51 52 53 53 52 50 49 48 48 47 46 45 45 45 44 45 47 48 50 52 52 53 52 52 51 50 49 48 46 45 43 41 39 37 36 35 33 31 29 27 25 24 22 21 22 22 21 21 20 18 18 20 20 19 20 17 14 15 18 18 18 19 20 22 24 25 27 29
23 23 25 28 31 33 35 35 36 37 40 42 44 44 47 49 51 52 53 54 56 56 55 53 51 51 50 49 48 46 45 44 45 46 48 49 51 52 53 53 53 53 52 51 49 48 46 44 43 41 39 38 36 35 32 30 28 26 24 23 22 22 22 22 22 22 20 18 19 21 21 20 20 17 17 19 21 21 21 21 23 24 26 28 30
26 25 25 25 25 27 30 33 35 38 40 42 44 45 45 45 48 51 54 55 56 57 57 56 55 54 53 52 50 48 46 45 45 47 48 48 49 51 52 53 53 53 52 52 50 49 48 46 44 42 41 40 38 36 34 32 29 27 25 24 23 23 22 23 23 23 22 20 19 20 21 21 21 20 20 21 22 24 24 24 25 27 28 30 32
29 29 29 28 27 27 29 31 34 37 40 42 45 46 47 46 46 49 53 56 56 57 58 58 59 59 57 55 52 50 49 47 46 46 47 48 49 50 51 52 53 53 53 52 51 50 49 47 45 44 42 41 40 37 35 33 30 28 27 25 24 23 23 23 23 23 23 22 20 19 20 21 22 21 21 22 23 24 25 27 29 30 32 34 34
28 30 31 32 32 32 32 32 33 35 37 39 41 42 44 46 47 48 51 54 56 57 58 59 61 62 61 58 55 53 51 49 48 47 47 47 48 49 51 51 52 52 53 53 52 51 50 48 46 44 43 42 41 38 35 33 31 29 28 26 25 24 24 24 24 24 24 23 21 19 18 20 22 22 21 22 23 25 26 28 30 31 33 36 37
29 29 29 31 32 33 34 33 33 33 34 35 36 38 40 44 47 48 50 53 55 57 58 59 60 62 62 60 58 55 53 52 50 49 48 48 48 49 50 51 51 52 53 53 53 53 51 49 48 46 45 43 41 38 36 34 32 30 29 27 26 25 25 24 24 24 24 23 21 20 19 19 20 22 22 22 23 25 28 31 32 32 33 35 37
35 33 31 30 29 30 31 32 31 30 30 31 32 36 39 42 46 48 50 52 54 56 57 58 59 60 61 61 59 57 55 54 53 51 50 50 49 49 49 50 51 52 54 54 54 54 52 51 49 47 45 43 40 38 36 34 33 31 30 29 27 27 26 25 25 24 24 22 21 20 20 19 20 22 22 23 24 25 27 30 33 34 35 36 37
37 37 36 35 32 29 29 29 29 28 28 30 32 34 38 42 45 47 49 51 52 54 56 57 58 59 60 60 60 58 57 57 55 54 53 51 50 49 49 50 51 53 54 55 56 55 54 52 50 48 46 43 41 39 37 35 34 32 31 30 29 28 27 26 25 24 23 22 21 21 21 20 20 22 23 24 25 26 26 29 32 34 36 38 38
37 37 37 37 36 34 31 29 29 28 27 28 30 32 36 39 42 45 47 49 50 52 54 55 57 58 59 60 59 59 59 59 58 56 54 52 51 50 50 51 52 53 54 55 57 57 55 53 51 49 46 44 42 40 38 37 35 34 33 31 30 29 28 26 25 24 23 22 21 21 21 21 21 22 23 24 24 25 26 28 31 34 35 38 40
38 38 37 36 36 35 34 32 30 29 27 26 26 29 32 36 40 43 45 47 49 50 52 53 55 56 58 59 59 59 59 58 57 56 55 53 51 50 51 52 53 54 55 56 57 57 56 55 52 50 48 46 44 42 40 38 37 35 34 32 31 30 28 26 25 24 23 22 21 21 21 21 21 21 23 24 24 24 25 27 30 32 34 37 41
38 37 37 38 37 36 35 35 34 33 30 27 25 26 29 33 37 40 43 45 47 49 50 51 52 54 56 58 59 59 58 57 56 56 55 53 51 50 51 51 53 55 56 56 56 57 57 56 54 52 50 48 46 44 42 40 38 37 35 33 32 30 28 26 25 24 24 23 22 20 20 21 21 20 21 22 23 24 25 26 28 30 32 34 38
38 38 38 38 38 38 38 37 37 37 36 33 29 26 27 30 33 36 40 42 45 48 50 50 51 52 54 57 58 58 56 55 55 55 55 53 52 51 51 52 53 55 56 57 57 57 58 57 56 54 51 49 47 45 43 41 40 37 35 34 33 30 28 26 25 26 25 24 22 19 19 20 20 20 20 21 23 24 25 26 26 28 31 33 35
39 38 38 38 38 39 39 39 38 37 37 36 35 31 28 28 29 32 35 39 43 46 47 48 49 50 52 55 56 56 55 55 54 54 54 53 51 50 50 52 54 55 56 58 58 58 58 58 57 55 52 50 48 46 44 42 40 38 36 35 33 30 28 27 27 27 25 22 21 19 18 19 20 20 20 20 22 23 23 24 26 28 31 32 34
41 40 39 39 38 39 40 41 40 39 37 36 35 35 32 29 29 30 32 36 39 42 44 46 47 49 50 52 54 54 54 54 54 54 53 52 50 50 50 53 55 56 57 58 58 57 57 57 56 54 52 50 48 46 44 42 41 38 37 35 33 30 28 28 27 26 23 21 20 18 17 18 19 19 20 20 21 21 21 23 25 28 30 33 34
43 43 42 41 40 40 41 41 41 41 39 37 36 35 34 32 30 29 30 33 36 39 42 44 45 47 48 50 51 52 53 53 53 53 52 51 50 50 51 54 56 57 57 57 57 56 56 56 56 54 52 49 47 44 42 42 40 38 36 34 32 30 29 28 26 24 22 21 20 19 19 19 18 18 18 18 19 20 21 23 24 25 29 33 35
43 44 44 43 42 41 41 42 42 42 41 40 38 36 35 34 31 28 29 31 34 36 39 40 42 45 46 48 50 51 51 51 51 51 50 50 50 51 53 54 56 57 57 57 56 55 55 55 55 53 51 48 45 43 42 41 40 38 35 34 32 31 29 28 27 24 23 21 20 20 19 18 17 17 16 16 17 19 22 23 22 24 29 33 35
41 43 44 44 43 42 41 42 42 42 42 41 40 38 36 34 32 29 28 29 31 33 35 37 40 42 44 46 47 48 49 50 49 49 49 49 49 52 53 54 55 56 56 56 55 55 54 54 53 52 50 47 44 42 42 41 39 38 36 34 33 32 30 29 27 25 23 22 21 20 19 17 17 16 15 15 16 18 20 22 23 25 28 31 34
40 42 44 44 44 43 42 41 42 43 43 42 41 40 38 36 34 31 28 27 28 30 32 35 38 40 42 44 45 46 47 48 47 47 47 47 49 51 53 54 55 56 56 55 55 55 54 54 53 52 49 45 42 41 42 42 40 38 36 35 35 33 30 29 27 25 23 22 21 20 18 16 17 16 15 15 15 16 18 20 22 25 28 30 32
40 42 44 45 45 44 42 42 42 43 44 44 43 41 39 38 36 34 31 28 27 28 29 32 35 37 39 41 42 44 45 46 45 45 45 46 48 52 53 53 54 55 55 55 56 55 54 53 53 51 47 43 41 41 42 42 40 37 36 36 35 33 30 28 26 23 23 22 20 19 17 17 17 16 16 15 15 15 17 18 21 24 27 30 31
40 42 45 46 47 47 45 44 44 44 45 46 45 43 41 39 39 38 35 31 28 27 28 29 31 34 36 39 40 42 43 44 43 44 44 45 47 51 53 53 54 54 54 54 55 55 54 54 53 50 46 43 42 42 42 40 38 37 37 37 34 31 29 27 24 23 23 21 19 18 17 17 17 16 16 16 15 15 16 18 20 23 25 28 31
41 43 46 48 49 49 48 47 46 46 47 47 47 46 43 40 40 39 38 36 33 30 28 28 29 32 34 37 39 40 41 42 41 42 42 43 45 49 51 51 51 52 52 52 53 54 54 54 52 48 44 43 43 42 41 39 39 39 38 36 33 30 28 26 24 23 22 19 18 18 18 17 16 16 16 16 15 16 17 18 20 22 24 27 29
44 46 48 50 51 52 52 51 50 49 49 49 49 49 46 43 41 40 40 39 36 33 31 29 29 31 33 35 37 38 39 40 40 40 40 42 43 45 48 48 48 49 51 51 52 53 52 51 48 44 42 44 44 42 41 40 39 39 37 35 31 28 27 26 24 23 21 19 19 19 17 17 17 16 15 16 16 16 18 20 22 23 24 26 27
45 48 50 52 53 54 54 54 53 52 51 51 51 50 48 45 43 41 40 40 38 36 34 32 31 31 33 34 36 38 38 39 39 38 39 41 41 42 46 48 46 46 48 48 49 50 48 47 45 43 43 45 45 43 42 39 37 36 35 31 28 27 27 26 23 21 19 19 19 18 16 16 16 15 15 16 16 17 19 21 23 23 24 27 28
48 49 51 53 55 56 57 57 56 55 54 52 52 51 49 47 45 43 41 40 40 38 36 35 34 33 33 34 35 37 38 38 39 38 38 40 40 39 42 45 45 44 45 47 47 47 45 43 42 41 43 45 44 41 40 37 34 33 31 28 28 28 27 24 20 19 20 20 19 17 16 16 16 15 16 17 17 18 20 21 23 24 24 27 29
51 52 54 55 56 57 59 59 59 58 56 54 53 52 50 48 47 45 43 41 41 39 38 37 36 36 36 35 34 35 37 37 38 38 38 40 41 39 39 41 43 42 43 44 44 44 42 41 41 42 44 43 40 38 37 35 32 31 31 31 31 29 24 21 20 20 20 19 18 17 16 15 15 15 16 18 19 19 20 22 24 24 24 27 30
55 57 59 60 60 59 60 60 61 60 57 55 53 52 51 49 47 46 46 44 42 41 40 39 38 38 38 37 35 35 35 36 38 38 37 39 41 41 40 40 40 40 40 41 43 44 42 41 41 42 41 38 36 37 38 36 34 34 34 33 30 26 23 21 21 20 20 19 18 16 15 14 15 16 17 19 20 19 20 23 24 25 25 28 31
57 59 60 61 62 63 61 59 59 59 57 55 52 51 52 50 47 47 47 45 43 42 41 40 40 39 38 37 36 36 36 37 38 38 37 38 40 42 44 43 40 39 41 42 43 42 41 40 40 39 37 37 39 39 39 37 37 36 33 30 27 25 24 23 22 20 20 19 17 15 14 14 15 17 18 20 20 19 20 22 24 25 26 28 32
59 61 61 61 62 63 60 57 56 55 55 53 52 51 51 50 48 47 47 46 45 43 41 41 40 38 36 36 36 36 37 37 35 33 33 35 38 41 45 47 45 43 43 44 43 41 40 40 41 41 41 42 42 40 38 37 37 35 31 29 28 27 26 24 22 21 20 19 17 15 14 15 16 17 19 20 20 19 20 22 23 25 26 28 31
61 62 62 62 62 60 57 54 52 51 51 51 51 52 52 51 49 48 47 47 45 43 41 40 39 38 37 37 37 37 36 35 31 29 29 31 35 39 43 48 49 47 46 44 42 42 43 43 43 44 44 44 42 40 39 39 37 35 33 32 30 29 26 25 23 22 20 18 16 14 15 16 17 18 19 20 20 20 20 21 22 24 27 29 32
58 60 62 61 60 58 55 53 52 51 51 50 50 50 51 52 51 49 47 45 44 43 42 41 40 39 38 38 38 37 36 35 32 29 27 27 31 35 41 47 49 48 47 46 43 43 45 46 47 46 45 45 43 42 40 39 37 36 35 33 31 29 27 25 23 22 19 16 15 15 15 16 17 18 19 20 20 21 21 21 22 24 27 29 31
52 56 58 58 57 55 54 53 53 52 50 48 47 47 47 48 50 50 47 44 42 42 41 41 40 39 39 39 39 38 37 37 35 31 27 26 28 32 38 45 49 48 47 46 45 44 46 48 49 48 47 46 44 41 39 37 37 36 34 32 30 27 25 24 22 19 17 15 15 15 15 16 17 18 18 19 20 21 22 22 24 25 27 28 30
48 51 53 53 52 52 50 50 51 50 48 46 45 44 42 41 44 46 45 41 39 39 38 38 39 38 37 38 39 39 38 36 34 32 29 26 27 29 36 42 47 48 48 47 46 45 46 48 48 48 48 46 43 40 38 37 36 34 32 30 28 25 24 22 20 17 16 16 15 15 15 16 16 17 18 18 20 21 23 24 25 26 27 28 30
44 46 48 47 47 47 46 45 45 44 42 40 39 39 39 39 39 40 40 38 37 37 36 35 36 36 35 35 35 37 37 34 33 32 29 27 26 28 34 39 41 44 49 50 48 46 46 47 47 47 46 44 41 39 37 36 35 34 31 29 27 25 23 21 18 16 17 16 15 14 15 15 15 17 18 18 19 21 23 25 26 26 26 28 30
43 45 46 44 43 43 43 41 39 38 37 35 33 33 34 35 35 36 37 37 36 37 37 35 34 34 34 33 33 34 34 32 30 29 28 28 26 27 34 40 40 41 46 50 50 48 46 46 46 45 43 41 39 37 37 36 35 33 31 29 27 25 21 19 17 17 16 15 14 14 14 14 14 16 17 19 19 21 24 25 26 26 27 28 31
45 46 46 44 42 42 43 42 41 39 38 38 37 35 35 35 34 35 36 36 36 36 37 35 33 32 33 33 32 31 30 29 28 25 26 28 27 29 39 46 46 45 47 49 49 48 46 44 43 42 40 38 37 37 36 34 33 31 30 28 25 22 20 18 17 16 15 14 14 14 14 13 14 15 17 19 20 22 24 26 26 27 27 28 30
47 46 44 42 40 40 40 41 40 39 38 37 37 36 36 36 36 36 36 36 36 35 35 35 33 33 33 33 32 30 28 27 27 24 24 26 29 34 43 49 49 49 50 50 48 48 45 42 41 39 36 35 35 35 34 33 32 31 29 26 23 21 19 18 17 15 14 13 13 14 13 13 13 15 17 19 21 22 24 25 26 27 28 28 30
44 41 39 38 36 37 38 38 37 35 35 34 34 34 35 35 35 35 36 36 36 35 35 34 34 34 34 34 33 31 28 27 26 26 27 29 33 38 45 49 50 51 53 51 49 46 43 41 39 36 34 34 35 34 33 32 32 30 27 24 22 20 19 17 16 14 13 13 13 13 13 12 13 15 17 20 22 23 24 24 25 27 29 29 30
42 41 41 40 39 40 41 39 37 35 34 34 35 35 36 35 34 34 35 35 35 36 35 34 34 35 35 33 32 32 31 31 32 33 34 35 38 42 46 49 50 51 52 51 47 44 42 41 40 36 33 33 34 33 32 31 29 27 24 22 20 19 18 16 15 13 12 12 12 12 12 12 13 15 17 19 22 23 24 25 25 27 29 31 33
41 41 39 36 35 35 34 34 33 33 32 33 34 34 35 34 33 34 34 35 35 36 35 34 34 34 33 32 31 33 35 37 38 38 37 38 41 44 47 48 50 51 51 49 45 42 41 41 38 35 33 33 33 33 32 30 27 25 22 21 19 17 16 15 13 12 12 11 11 11 11 12 13 15 17 19 21 23 24 25 26 27 28 31 35
39 39 38 36 35 35 35 35 35 33 32 32 33 33 33 32 32 33 34 35 35 35 34 34 34 33 32 32 32 33 36 39 40 39 38 39 42 45 47 49 51 52 50 47 44 42 40 38 35 34 34 34 34 33 31 28 25 23 21 19 18 16 14 13 12 12 11 10 10 11 11 12 14 16 18 20 22 22 23 25 26 28 30 32 35
36 37 37 36 36 37 37 37 36 35 34 34 34 33 32 32 31 32 33 34 35 34 33 33 33 32 31 31 31 32 35 38 39 38 38 39 42 45 47 49 50 50 47 45 43 42 39 36 34 34 34 34 34 32 29 26 23 21 19 17 16 14 13 13 12 11 10 10 10 10 11 12 14 16 18 20 21 23 24 26 27 29 31 33 34
32 33 33 33 34 34 34 34 34 33 32 33 33 32 31 31 32 32 32 33 33 33 32 32 31 30 30 29 28 30 34 37 38 38 38 41 44 46 47 47 47 46 43 42 41 39 37 34 33 33 33 32 31 28 25 23 21 19 18 16 15 13 13 12 11 10 10 10 10 10 12 13 14 16 18 20 21 23 24 26 29 30 31 33 35
30 30 31 31 31 32 32 32 32 31 30 29 29 29 29 30 31 31 31 31 31 31 31 30 29 29 28 27 27 31 35 37 37 38 39 42 44 45 46 45 44 42 41 39 36 34 33 32 33 34 32 30 27 25 22 21 19 18 16 15 13 12 12 11 11 10 10 10 10 11 12 13 14 16 19 20 22 24 25 27 29 31 32 33 35
29 29 30 31 31 31 31 31 30 28 26 25 25 26 27 28 28 29 29 29 29 29 28 28 27 27 27 27 29 34 37 38 38 38 40 41 43 43 43 41 39 38 37 35 32 31 31 32 33 32 30 28 25 23 21 19 18 16 15 14 12 12 11 11 11 10 10 10 11 12 13 14 15 17 20 21 22 24 26 28 30 31 31 33 36
28 28 29 29 30 30 30 29 29 27 24 22 22 23 25 25 26 27 27 27 26 26 26 25 25 26 26 28 33 37 38 38 37 37 38 40 41 41 39 37 35 34 32 31 31 31 31 31 30 28 26 24 22 20 19 17 16 15 14 12 11 11 10 10 10 11 11 12 13 13 13 15 17 18 20 21 22 24 27 29 30 30 30 33 37
27 27 27 27 26 26 25 24 23 22 21 20 21 22 23 24 24 24 24 24 23 23 23 24 24 26 27 30 34 36 36 35 35 35 36 37 38 37 36 35 34 32 30 30 31 31 30 29 27 25 23 22 20 18 17 15 14 13 12 11 10 10 10 10 11 11 12 13 13 14 14 16 18 19 20 21 23 25 28 29 29 29 30 33 37
23 22 22 22 21 19 19 18 16 15 15 16 19 20 21 21 21 21 20 20 20 21 22 23 24 26 28 30 33 35 34 33 33 34 34 34 34 35 35 34 32 30 29 30 31 30 28 27 24 22 20 19 17 16 15 13 12 11 10 9 9 9 10 11 11 12 12 13 14 14 15 17 19 20 21 22 24 27 29 29 29 28 30 33 37
20 18 17 16 15 13 13 13 12 12 12 14 15 16 17 17 17 17 18 18 19 20 22 23 24 26 28 29 31 33 32 32 32 32 32 32 33 34 34 31 29 27 28 30 30 28 26 23 21 20 18 16 15 14 12 11 9 9 8 8 9 10 11 11 11 12 13 14 14 14 16 18 20 20 21 23 26 28 28 28 28 28 29 33 38
18 16 14 12 11 9 7 7 7 7 8 9 10 11 12 13 14 15 16 18 19 20 22 23 24 26 28 29 30 30 29 29 30 31 32 33 34 32 30 27 27 28 29 29 28 26 24 21 19 18 16 14 13 11 9 8 7 7 7 8 9 10 11 11 12 13 13 14 15 15 17 18 19 20 21 24 27 28 27 27 27 28 30 34 38
17 15 14 12 10 8 6 3 2 2 4 5 6 8 10 11 13 14 16 17 19 20 22 23 24 25 27 27 27 26 26 28 29 31 32 32 31 28 26 27 28 30 30 28 25 23 21 19 17 16 14 12 11 9 7 6 6 6 7 8 9 10 11 12 12 12 13 14 15 15 17 18 18 19 22 26 27 26 26 26 27 28 31 35 38
Wind_Direction
291 286 282 278 274 273 272 270 269 268 266 264 264 263 262 261 260 259 258 257 256 254 254 254 254 253 250 248 246 245 243 242 241 241 240 239 238 237 237 237 237 236 236 236 236 237 238 239 240 241 243 244 246 247 249 250 252 254 257 260 264 268 270 272 273 273 272 273 274 275 278 281 285 288 291 294 299 301 305 306 307 309 311 312 313
316 303 294 287 281 278 277 275 274 272 271 270 270 269 268 266 263 262 262 261 259 257 256 255 255 254 252 249 247 246 244 243 242 242 241 240 238 237 237 237 236 236 236 236 236 236 236 237 239 240 241 242 244 245 247 249 251 253 256 259 263 267 270 271 272 271 269 270 275 278 281 286 293 300 302 304 307 308 307 307 309 311 312 312 312
334 323 314 306 298 290 284 282 282 280 278 276 275 275 275 272 268 266 265 263 261 260 258 256 255 254 253 251 248 247 245 243 242 241 241 241 239 239 238 238 237 236 236 236 236 235 235 236 238 239 240 242 243 244 245 247 249 251 254 257 260 264 267 269 270 272 272 269 274 282 287 292 300 308 312 312 313 313 313 314 314 314 314 315 315
334 327 320 313 307 298 291 289 290 288 287 286 284 283 280 277 275 272 268 264 262 261 259 258 256 255 253 252 250 248 246 243 242 241 241 241 241 240 240 239 239 238 237 237 236 236 236 236 238 239 240 241 242 244 245 246 248 249 251 254 256 259 263 266 268 270 271 271 273 281 289 296 304 311 315 315 315 316 318 318 318 318 319 320 320
333 329 321 313 306 298 292 290 290 289 289 288 288 287 285 281 279 275 270 266 264 262 260 258 256 255 253 253 252 250 247 244 242 241 241 240 241 241 241 241 240 239 239 238 237 237 237 237 238 239 240 241 242 243 244 245 247 248 248 250 251 254 257 261 265 267 270 272 275 280 289 298 305 309 313 315 315 316 317 319 321 324 325 324 324
334 328 323 317 311 306 301 296 292 290 289 287 286 287 286 282 279 274 270 268 266 263 261 259 257 255 254 253 252 251 249 246 244 243 242 241 240 240 241 241 241 240 239 238 237 237 237 237 238 239 240 242 243 244 245 245 246 246 246 247 248 250 254 257 261 264 268 273 277 283 291 298 303 306 310 313 314 315 317 318 320 325 326 325 325
344 336 327 319 312 309 306 302 297 292 288 287 287 286 283 280 277 274 271 269 266 263 262 260 259 257 255 253 252 251 250 248 245 242 241 240 239 239 240 240 240 240 239 238 237 237 236 236 237 238 239 241 242 243 243 244 244 244 244 244 245 248 251 254 257 262 266 272 279 286 291 296 300 303 306 310 312 315 318 320 322 325 325 323 324
355 351 344 334 322 311 303 299 298 294 290 288 287 285 283 280 278 275 272 269 266 264 263 262 260 258 255 253 252 250 249 248 245 242 240 239 238 238 238 239 240 240 239 238 237 236 236 236 236 237 238 239 240 241 241 242 242 242 241 242 244 246 249 251 255 259 264 270 277 284 289 293 296 299 304 308 311 315 320 322 322 324 323 322 323
356 357 355 351 344 331 314 301 297 296 294 291 289 287 285 282 279 276 272 270 268 266 264 261 259 257 255 253 251 250 249 248 246 244 241 239 237 237 237 237 238 239 239 238 237 236 235 235 235 236 236 237 237 238 239 239 239 240 241 241 243 245 247 249 253 257 262 268 274 279 285 290 294 297 302 306 312 317 322 322 320 321 321 320 321
351 353 354 354 352 347 337 322 309 301 298 296 293 290 287 284 280 276 272 270 267 265 262 261 259 258 255 253 251 249 249 248 248 246 243 241 239 237 236 236 236 237 238 238 237 235 234 233 234 234 234 235 235 236 236 237 237 238 239 241 242 244 245 248 252 256 261 266 270 276 282 288 291 296 300 306 312 317 319 319 317 318 318 318 319
345 346 347 349 349 350 350 345 335 322 311 303 298 294 291 286 282 277 273 269 266 263 261 260 259 258 255 253 251 250 250 249 248 247 245 242 240 238 238 237 237 237 237 236 236 236 234 233 232 232 232 232 233 234 235 235 236 236 238 240 241 242 244 247 251 256 260 263 267 274 280 285 290 295 300 305 310 313 315 314 314 316 319 320 321
342 341 341 341 343 345 348 350 349 345 335 323 311 304 298 290 284 279 274 270 266 263 261 259 258 256 254 252 251 251 251 251 250 248 246 244 241 240 239 239 239 238 237 237 236 235 234 233 232 231 231 231 232 233 234 234 235 236 237 238 239 240 242 246 250 254 257 261 266 273 280 286 291 295 298 302 306 308 308 309 311 317 321 321 320
340 338 338 338 339 340 342 343 346 348 346 341 332 320 307 296 289 282 277 273 268 264 261 259 257 255 253 252 251 251 251 251 250 248 246 245 243 241 240 240 240 240 239 238 236 234 233 232 231 230 229 230 231 232 233 234 234 235 235 236 237 238 241 244 247 251 255 261 267 273 279 284 288 291 294 297 300 300 303 308 314 319 319 316 315
339 338 337 337 337 337 338 339 341 342 343 343 342 336 323 308 297 288 281 274 268 265 262 260 257 255 253 252 251 251 252 252 251 249 247 245 244 242 241 242 242 241 240 239 237 235 233 232 231 230 229 229 230 231 232 233 234 234 234 234 236 238 240 242 245 250 256 262 266 270 274 278 282 285 288 290 292 298 306 311 314 315 313 311 312
337 338 337 337 337 337 336 336 337 338 338 339 340 341 336 325 310 297 286 277 271 267 264 261 259 256 254 253 252 252 252 251 250 248 247 245 244 243 241 241 241 241 240 239 238 236 234 233 232 231 230 230 231 232 233 234 234 234 233 234 236 238 239 242 246 250 255 257 261 265 267 269 273 277 281 287 294 303 308 306 308 311 309 308 310
333 334 335 336 336 335 335 335 334 334 335 334 335 337 338 335 325 308 292 282 275 270 265 262 260 258 256 254 252 252 252 250 248 248 246 245 244 243 241 240 240 240 239 238 237 236 234 233 231 231 231 231 232 232 233 234 235 234 233 234 236 237 238 241 244 246 249 251 255 259 261 263 267 272 282 292 299 302 300 299 305 309 305 305 309
329 329 330 332 332 332 333 333 332 331 331 330 330 331 333 334 332 321 304 291 281 274 270 267 264 261 258 255 253 253 252 250 248 247 246 244 243 242 240 239 238 238 238 238 237 235 234 233 231 231 231 231 231 232 233 233 233 232 232 233 235 235 236 238 240 241 242 245 250 255 259 263 268 274 284 290 292 292 292 297 305 306 304 307 312
325 325 325 326 327 327 328 328 329 329 328 327 326 326 327 329 330 326 314 301 290 282 277 272 267 263 260 258 256 254 253 252 250 248 247 245 243 242 241 239 238 237 236 236 235 234 233 231 230 230 230 230 230 231 232 233 232 231 232 232 233 234 234 236 237 236 237 241 247 254 259 263 267 273 279 280 282 285 290 299 305 305 306 310 313
322 322 322 322 322 322 323 323 324 324 324 323 322 321 321 323 324 324 318 308 298 289 281 274 270 266 263 260 258 256 254 253 251 249 247 245 244 242 241 238 237 236 235 234 233 232 230 229 228 228 229 229 230 231 232 233 232 231 232 232 233 234 234 234 234 234 237 242 248 253 257 260 264 268 271 273 277 284 290 299 304 305 307 309 311
318 318 319 319 319 319 320 320 319 319 319 318 318 317 317 318 318 319 318 312 303 295 287 280 275 271 267 263 260 257 255 253 251 249 247 245 243 242 240 238 236 235 234 232 231 229 228 226 226 226 227 228 229 230 231 233 232 231 233 233 234 234 233 232 232 234 239 244 248 252 255 257 261 265 268 273 278 284 291 298 302 304 307 307 308
313 314 314 314 316 317 318 318 317 315 314 314 314 313 313 314 313 314 315 312 305 298 293 286 279 275 270 266 262 258 256 254 251 248 246 242 240 240 240 238 237 235 233 231 231 229 227 226 225 225 226 226 227 228 229 232 232 232 233 234 234 232 230 230 232 236 241 244 247 251 254 257 262 267 273 277 282 288 294 300 303 303 304 304 305
310 311 310 311 312 314 315 316 315 313 312 311 310 309 310 310 309 309 311 310 305 299 294 289 283 278 272 268 264 260 257 255 251 247 244 240 237 238 239 238 237 236 234 232 231 229 228 226 226 226 226 226 227 228 228 230 233 232 232 231 230 228 227 229 232 237 242 245 245 248 252 257 263 268 274 280 287 294 298 300 300 298 298 300 303
308 308 307 308 309 311 312 313 313 312 310 309 308 306 306 306 306 305 305 306 303 297 292 287 283 279 274 270 266 262 259 256 252 248 244 238 233 234 238 239 238 237 235 234 232 230 229 227 228 230 229 228 229 229 227 227 229 230 230 228 226 226 228 231 233 236 240 242 244 248 251 257 262 266 273 281 288 296 298 297 296 296 298 300 301
304 304 305 305 306 308 309 310 310 310 309 307 305 303 302 302 301 301 301 301 299 295 290 285 280 277 276 272 268 264 260 257 254 250 245 238 231 228 234 238 237 235 236 235 233 234 233 231 232 232 230 228 229 229 227 223 222 225 228 226 222 224 230 232 233 235 238 241 246 250 252 257 263 268 275 283 289 295 296 295 297 299 301 302 302
302 302 302 303 305 306 307 307 307 307 306 305 303 300 299 298 297 296 296 295 294 292 289 285 280 276 274 272 270 266 261 258 256 251 246 240 230 224 230 236 236 235 237 235 234 235 234 232 231 228 226 226 226 224 221 217 216 218 221 220 221 226 232 234 233 235 239 242 247 251 253 258 265 271 279 287 291 293 295 296 298 301 302 302 301
301 301 301 302 303 304 305 305 305 304 303 302 300 298 296 294 292 292 290 289 289 288 287 284 281 276 272 271 271 269 264 260 257 253 247 240 230 221 225 234 236 236 238 237 235 235 233 229 228 225 223 222 220 216 212 209 209 211 214 219 225 230 232 233 233 235 239 243 246 250 252 258 267 276 283 288 291 294 298 298 299 301 303 303 302
298 299 301 302 302 302 303 302 302 302 300 299 297 295 293 291 288 287 286 285 285 285 284 282 279 276 274 271 270 269 266 261 258 253 247 241 231 221 220 229 233 233 233 232 230 230 228 225 225 224 219 212 208 207 208 206 206 211 218 224 228 231 230 231 233 236 239 243 245 249 255 262 272 280 284 287 292 297 299 299 301 305 307 307 306
296 297 299 300 301 301 301 300 299 299 298 296 294 292 290 288 285 283 283 282 281 281 281 280 278 277 277 274 270 268 265 261 258 255 250 245 236 223 217 221 225 225 224 223 222 222 222 220 218 215 208 202 201 205 208 210 212 218 224 226 227 228 227 229 232 235 239 243 246 251 260 268 276 282 285 288 293 297 298 301 304 308 310 310 310
297 297 298 298 298 298 298 297 296 295 294 293 290 288 286 284 282 280 280 279 279 278 277 278 278 277 277 274 270 266 264 265 266 263 259 253 244 230 219 217 219 221 221 220 218 216 215 212 210 206 202 203 206 208 211 214 216 219 223 223 223 225 226 228 231 233 237 241 246 254 264 271 278 283 286 289 293 297 301 304 307 310 311 311 310
297 297 297 296 296 296 295 294 293 291 290 289 287 285 284 281 279 277 276 276 276 275 274 274 275 274 273 272 270 267 267 271 272 267 261 254 247 236 224 218 219 220 218 216 215 215 213 209 208 207 207 208 210 211 213 215 216 217 218 219 220 221 223 225 228 231 234 240 247 257 266 272 278 282 286 290 295 300 304 308 310 312 312 311 310
295 295 295 294 294 294 292 290 289 289 288 286 283 282 281 279 277 276 274 274 273 273 272 271 271 270 268 268 268 267 266 266 264 260 255 251 246 235 223 218 219 219 216 212 210 212 213 211 209 210 211 211 213 214 215 215 215 215 216 216 217 218 220 223 226 229 234 241 249 258 266 272 278 282 286 292 298 303 307 311 314 313 311 310 311
292 292 292 292 292 291 290 289 288 288 287 285 282 279 279 279 277 275 273 271 270 270 270 270 269 267 265 265 265 264 262 261 259 256 250 246 242 230 219 217 219 218 215 213 211 212 214 212 210 210 211 212 214 215 214 213 213 214 214 214 215 216 218 222 226 229 234 242 249 256 264 271 277 283 289 295 301 306 311 315 316 314 311 311 314
291 290 290 290 290 290 289 288 287 286 286 284 281 278 276 276 275 275 274 272 269 268 267 267 267 265 263 262 263 264 263 259 257 254 248 242 238 225 213 215 218 217 214 213 212 213 214 213 212 213 213 213 214 213 211 211 211 212 212 213 213 215 217 221 225 230 236 243 249 255 263 270 278 285 292 298 303 309 314 317 316 314 313 315 317
290 289 289 289 289 288 287 287 286 286 287 287 285 282 278 273 271 271 272 272 269 266 263 262 262 261 259 256 255 259 261 258 254 250 244 238 232 218 207 209 215 215 215 216 214 215 215 214 213 215 215 214 213 210 208 208 208 208 208 209 211 214 217 220 226 232 238 244 250 256 263 272 281 288 293 299 306 312 316 316 315 315 317 319 321
292 290 290 289 287 285 285 283 281 281 282 282 281 281 280 278 275 270 267 266 265 264 264 262 259 258 257 253 248 250 254 254 250 245 236 230 225 210 202 205 206 206 210 214 216 216 217 216 216 216 216 215 213 209 206 206 206 205 205 207 209 212 215 220 226 233 240 247 253 260 267 275 282 289 296 304 311 316 316 316 315 318 321 324 324
292 290 289 287 285 284 283 281 279 279 278 275 273 270 270 271 272 270 268 265 262 261 262 263 261 258 254 250 245 242 241 242 243 241 234 228 219 203 198 203 203 200 203 208 212 215 217 218 219 218 215 213 211 208 205 204 203 202 202 204 207 210 214 220 226 232 241 249 255 263 270 276 284 294 303 309 315 317 316 316 317 320 325 327 326
291 290 290 290 289 287 286 284 282 280 277 274 273 270 268 267 267 266 264 263 262 260 259 258 258 255 250 245 239 233 229 230 233 234 229 223 214 202 200 202 202 201 203 206 209 212 215 218 219 217 213 210 208 206 204 202 200 200 201 201 204 208 213 219 225 231 239 249 257 265 271 279 291 302 308 312 316 317 316 317 320 323 326 328 327
289 287 286 285 284 283 282 282 281 278 274 272 271 269 269 270 270 265 261 259 259 259 257 254 251 250 249 246 239 229 221 217 217 216 212 210 206 202 203 204 203 203 205 208 209 210 213 216 216 215 212 209 206 203 202 200 199 199 199 198 202 207 213 219 225 231 239 249 257 266 277 288 299 307 311 314 316 317 318 322 325 326 328 329 326
285 283 281 280 279 277 276 276 276 275 272 270 268 268 268 270 269 264 260 258 257 257 255 252 248 247 248 246 238 225 215 208 207 207 206 205 204 203 203 204 203 204 207 208 207 208 212 214 214 212 209 206 203 200 200 200 199 198 197 198 203 207 211 218 226 232 241 252 261 271 284 295 302 308 312 314 316 319 324 327 328 329 330 330 326
290 289 286 283 281 278 276 275 276 277 275 273 271 268 267 266 264 261 259 257 256 256 253 250 249 248 247 243 235 224 214 209 208 208 205 203 203 204 204 203 203 204 206 206 205 208 211 213 211 208 205 202 200 199 199 198 197 197 198 199 203 208 212 219 227 235 245 256 267 278 288 298 304 309 313 316 319 324 326 328 331 333 333 329 325
292 290 287 283 280 278 276 274 272 271 270 272 274 272 268 264 260 259 258 256 255 255 253 251 250 249 246 242 238 229 220 213 211 210 207 203 202 203 204 204 205 205 206 206 208 211 212 210 207 204 199 197 197 197 197 196 195 196 199 200 203 209 215 221 229 240 250 261 273 283 292 301 307 311 315 320 323 324 325 329 335 337 333 327 323
295 291 289 286 284 282 280 278 276 271 266 262 263 266 268 266 260 257 256 255 254 254 252 249 248 246 242 239 235 228 221 216 212 209 206 204 203 203 204 205 205 205 206 209 213 215 212 208 204 201 197 195 195 195 194 194 195 196 198 201 205 210 217 225 234 244 253 265 278 288 297 305 309 313 318 321 322 324 327 333 338 337 330 325 324
300 296 293 290 287 284 282 281 280 279 275 266 259 258 262 265 262 258 256 255 253 251 248 246 243 240 236 232 224 217 215 215 212 208 206 205 204 204 205 206 205 206 209 213 216 215 211 205 200 195 192 192 193 192 192 193 195 196 199 203 208 213 220 230 240 248 259 272 284 292 300 307 310 314 317 320 322 325 332 338 338 333 327 325 326
306 301 297 294 290 287 285 282 280 280 279 273 265 258 258 262 263 260 255 253 252 249 245 242 238 234 230 222 211 207 210 211 210 207 206 205 204 204 205 206 205 205 209 212 211 207 203 198 192 187 186 187 187 189 191 193 195 198 201 204 210 217 225 236 247 256 267 279 287 295 302 308 310 313 317 321 325 330 335 339 336 329 326 326 327
310 305 302 298 294 290 286 283 282 282 280 275 268 261 257 259 262 261 256 253 250 246 241 238 233 229 224 214 203 202 206 208 207 205 205 204 204 204 205 204 204 205 207 205 200 195 193 190 187 184 184 184 185 188 191 194 196 200 204 208 213 222 231 242 255 266 277 286 292 299 304 307 311 315 319 324 329 333 337 336 331 326 326 328 327
316 312 308 304 299 295 290 285 281 280 278 272 267 261 256 257 260 260 256 251 246 241 237 232 227 221 215 206 201 201 203 204 203 204 204 205 205 203 202 202 201 201 198 193 189 186 184 182 182 181 181 182 185 188 192 196 199 204 208 212 219 229 241 252 264 276 286 292 296 302 305 307 312 316 320 325 331 335 334 329 324 324 328 330 329
321 316 313 310 305 300 296 290 284 279 274 269 264 260 257 256 257 255 250 244 240 234 228 222 217 212 208 203 200 202 203 203 203 204 205 205 203 201 199 197 193 188 184 183 182 181 178 176 177 178 179 182 186 188 192 198 204 207 213 220 228 238 250 261 271 282 290 295 300 304 306 308 312 316 321 328 334 333 327 321 320 325 330 331 332
326 321 318 317 315 307 301 298 295 288 279 270 263 258 254 251 249 244 238 233 227 222 217 213 209 206 204 201 200 201 202 202 202 203 202 199 196 193 191 188 185 182 181 180 178 175 174 174 175 176 178 182 186 189 195 201 207 212 220 229 238 248 259 268 276 285 292 296 302 305 305 307 312 319 326 332 331 325 318 315 319 327 332 332 333
337 334 330 329 327 319 310 303 297 287 275 264 254 247 243 239 235 229 223 218 213 210 209 208 205 203 201 199 199 200 200 199 198 195 191 186 183 181 180 180 180 180 179 175 172 171 172 172 173 176 179 183 186 191 197 203 210 219 231 240 248 258 266 272 279 287 294 299 302 302 301 306 315 325 330 328 322 315 312 314 321 329 332 332 333
352 351 351 349 345 338 325 304 283 266 254 245 237 231 225 220 215 210 208 206 203 201 200 200 199 198 198 197 196 195 194 191 188 184 179 175 173 172 174 175 175 174 172 170 169 169 170 170 173 176 179 182 186 191 197 206 216 230 242 249 256 264 270 274 282 290 296 300 301 300 301 310 321 326 323 317 312 309 309 315 324 331 333 331 332
8 7 8 10 10 8 1 345 305 239 221 216 212 208 202 196 193 194 195 196 195 193 193 194 194 193 192 192 191 188 185 182 179 175 173 171 171 172 174 174 172 169 167 167 167 168 168 170 173 176 178 182 186 190 198 210 224 240 251 258 265 270 274 279 288 293 296 299 300 300 303 312 320 319 313 310 309 308 310 317 328 333 331 329 330